Point Pleasant, WV

7:59 AM EDT on July 22, 2017 (GMT -0400)
Point Pleasant

Weather History for K3I2 - December, 2012

Change the Weather History Date:

Friday, December 21, 2012

  Actual Average (KHTS) Record (KHTS)
Temperature  
Mean Temperature 32 °F -  
Max Temperature 35 °F 41 °F 75 °F (2013)
Min Temperature 28 °F 25 °F -6 °F (1942)
Degree Days  
Heating Degree Days 34    
Moisture  
Dew Point 27 °F    
Average Humidity 85    
Maximum Humidity 93    
Minimum Humidity 75    
Precipitation  
Precipitation 0.00 in - - ()
Sea Level Pressure  
Sea Level Pressure 29.71 in    
Wind  
Wind Speed 17 mph (WSW)    
Max Wind Speed 26 mph    
Max Gust Speed 37 mph    
Visibility 4 miles    
Events Snow    
Averages and records for this station are not official NWS values.
T = Trace of Precipitation, MM = Missing Value Source: NWS Daily Summary

Daily Weather History Graph

Daily Weather History Graph

Search for Another Location

Airport or City:

Trip Planner

Search our weather history database for the weather conditions in past years. The results will help you decide how hot, cold, wet, or windy it might be!

Date:

Astronomy

Dec. 21, 2012 Rise Set
Actual Time 7:43 AM EST 5:09 PM EST
Civil Twilight 7:13 AM EST 5:39 PM EST
Nautical Twilight 6:40 AM EST 6:13 PM EST
Astronomical Twilight 6:07 AM EST 6:45 PM EST
Moon 12:54 PM EST (12/21) 1:31 AM EST (12/21)
Length of Visible Light 10h 26m
Length of Day
9h 26m
Waxing Gibbous, 64% of the Moon is Illuminated
Dec 21
Waxing Gibbous
Dec 28
Full
Jan 4
Last Quarter
Jan 11
New
Jan 18
First Quarter

Hourly Weather History & Observations

Time (EST) Temp. Windchill Dew Point Humidity Pressure Visibility Wind Dir Wind Speed Gust Speed Precip Events Conditions
12:15 AM 35.6 °F 23.2 °F 28.4 °F 75% 29.57 in 10.0 mi SW 26.5 mph 36.8 mph N/A   Mostly Cloudy
12:35 AM 35.6 °F 24.5 °F 28.4 °F 75% 29.57 in 10.0 mi WSW 20.7 mph 33.4 mph N/A   Mostly Cloudy
12:55 AM 33.8 °F 23.9 °F 28.4 °F 81% 29.57 in 10.0 mi SW 15.0 mph 29.9 mph N/A   Overcast
1:15 AM 33.8 °F 22.5 °F 28.4 °F 81% 29.57 in 10.0 mi WSW 19.6 mph 29.9 mph N/A Snow Light Snow
1:35 AM 33.8 °F 23.9 °F 26.6 °F 75% 29.57 in 10.0 mi WSW 15.0 mph 27.6 mph N/A   Mostly Cloudy
1:55 AM 33.8 °F 23.5 °F 28.4 °F 81% 29.58 in 5.0 mi WSW 16.1 mph 35.7 mph N/A Snow Light Snow
2:15 AM 33.8 °F 24.3 °F 26.6 °F 75% 29.58 in 10.0 mi WSW 13.8 mph 21.9 mph N/A   Mostly Cloudy
2:35 AM 33.8 °F 24.3 °F 26.6 °F 75% 29.59 in 7.0 mi West 13.8 mph 33.4 mph N/A Snow Light Snow
2:55 AM 32.0 °F 20.8 °F 26.6 °F 80% 29.59 in 10.0 mi WSW 17.3 mph 25.3 mph N/A Snow Light Snow
3:15 AM 33.8 °F 23.9 °F 26.6 °F 75% 29.59 in 10.0 mi WSW 15.0 mph 28.8 mph N/A Snow Light Snow
3:35 AM 32.0 °F 21.2 °F 26.6 °F 80% 29.59 in 10.0 mi WSW 16.1 mph 21.9 mph N/A   Overcast
3:55 AM 32.0 °F 20.8 °F 24.8 °F 75% 29.59 in 10.0 mi WSW 17.3 mph 32.2 mph N/A   Overcast
4:15 AM 32.0 °F 20.8 °F 24.8 °F 75% 29.58 in 7.0 mi WSW 17.3 mph 31.1 mph N/A Snow Light Snow
4:35 AM 32.0 °F 19.8 °F 28.4 °F 87% 29.59 in 4.0 mi WSW 20.7 mph 25.3 mph N/A Snow Light Snow
4:55 AM 32.0 °F 22.1 °F 28.4 °F 87% 29.58 in 2.0 mi WSW 13.8 mph 23.0 mph N/A Snow Light Snow
5:15 AM 30.2 °F 18.9 °F 28.4 °F 93% 29.59 in 1.5 mi WSW 16.1 mph 21.9 mph N/A Snow Light Snow
5:35 AM 30.2 °F 20.2 °F 28.4 °F 93% 29.58 in 4.0 mi WSW 12.7 mph 19.6 mph N/A Snow Light Snow
5:55 AM 32.0 °F 20.1 °F 26.6 °F 80% 29.58 in 3.0 mi WSW 19.6 mph 28.8 mph N/A Snow Light Snow
6:15 AM 30.2 °F 18.5 °F 26.6 °F 86% 29.58 in 2.0 mi WSW 17.3 mph 26.5 mph N/A Snow Light Snow
6:35 AM 30.2 °F 20.2 °F 28.4 °F 93% 29.58 in 1.2 mi WSW 12.7 mph 21.9 mph N/A Snow Light Snow
7:15 AM 30.2 °F 17.8 °F 28.4 °F 93% 29.58 in 2.5 mi WSW 19.6 mph 31.1 mph N/A Snow Light Snow
7:35 AM 30.2 °F 16.5 °F 26.6 °F 86% 29.59 in 4.0 mi WSW 24.2 mph 33.4 mph N/A Snow Light Snow
7:55 AM 30.2 °F 18.9 °F 26.6 °F 86% 29.59 in 4.0 mi WSW 16.1 mph 28.8 mph N/A Snow Light Snow
8:15 AM 30.2 °F 17.1 °F 26.6 °F 86% 29.59 in 1.8 mi WSW 21.9 mph 26.5 mph N/A Snow Light Snow
8:35 AM 30.2 °F 17.8 °F 26.6 °F 86% 29.60 in 2.0 mi WSW 19.6 mph 27.6 mph N/A Snow Light Snow
8:55 AM 30.2 °F 19.3 °F 26.6 °F 86% 29.60 in 1.2 mi WSW 15.0 mph 25.3 mph N/A Snow Light Snow
9:15 AM 30.2 °F 19.3 °F 26.6 °F 86% 29.61 in 1.0 mi WSW 15.0 mph 27.6 mph N/A Snow Light Snow
9:35 AM 30.2 °F 18.5 °F 26.6 °F 86% 29.62 in 0.8 mi WSW 17.3 mph 29.9 mph N/A Snow Light Snow
9:55 AM 30.2 °F 18.9 °F 26.6 °F 86% 29.63 in 0.8 mi WSW 16.1 mph 28.8 mph N/A Snow Light Snow
10:15 AM 30.2 °F 19.3 °F 26.6 °F 86% 29.64 in 1.0 mi WSW 15.0 mph 23.0 mph N/A Snow Light Snow
10:35 AM 30.2 °F 18.5 °F 26.6 °F 86% 29.65 in 1.0 mi WSW 17.3 mph 26.5 mph N/A Snow Light Snow
10:55 AM 30.2 °F 18.5 °F 26.6 °F 86% 29.65 in 1.0 mi WSW 17.3 mph 26.5 mph N/A Snow Light Snow
11:15 AM 30.2 °F 17.8 °F 26.6 °F 86% 29.65 in 1.0 mi WSW 19.6 mph 27.6 mph N/A Snow Light Snow
11:35 AM 30.2 °F 19.8 °F 26.6 °F 86% 29.66 in 1.0 mi West 13.8 mph 29.9 mph N/A Snow Light Snow
11:55 AM 30.2 °F 18.9 °F 26.6 °F 86% 29.66 in 1.2 mi WSW 16.1 mph 26.5 mph N/A Snow Light Snow
12:15 PM 30.2 °F 18.1 °F 26.6 °F 86% 29.66 in 1.5 mi WSW 18.4 mph 27.6 mph N/A Snow Light Snow
12:35 PM 30.2 °F 18.5 °F 26.6 °F 86% 29.67 in 4.0 mi WSW 17.3 mph 27.6 mph N/A Snow Light Snow
12:55 PM 30.2 °F 20.2 °F 26.6 °F 86% 29.67 in 2.5 mi WSW 12.7 mph 27.6 mph N/A Snow Light Snow
1:15 PM 30.2 °F 19.3 °F 26.6 °F 86% 29.68 in 2.0 mi WSW 15.0 mph 25.3 mph N/A Snow Light Snow
1:35 PM 30.2 °F 21.9 °F 26.6 °F 86% 29.68 in 1.2 mi WSW 9.2 mph 27.6 mph N/A Snow Light Snow
1:55 PM 30.2 °F 20.8 °F 26.6 °F 86% 29.69 in 1.5 mi WSW 11.5 mph 21.9 mph N/A Snow Light Snow
2:15 PM 30.2 °F 19.8 °F 26.6 °F 86% 29.69 in 0.8 mi WSW 13.8 mph 24.2 mph N/A Snow Light Snow
2:35 PM 30.2 °F 19.8 °F 26.6 °F 86% 29.69 in 3.0 mi WSW 13.8 mph 26.5 mph N/A Snow Light Snow
2:55 PM 30.2 °F 18.5 °F 24.8 °F 80% 29.70 in 1.8 mi WSW 17.3 mph 28.8 mph N/A Snow Light Snow
3:15 PM 30.2 °F 19.8 °F 24.8 °F 80% 29.71 in 1.5 mi WSW 13.8 mph 26.5 mph N/A Snow Light Snow
3:35 PM 30.2 °F 19.3 °F 26.6 °F 86% 29.72 in 1.2 mi WSW 15.0 mph 23.0 mph N/A Snow Light Snow
3:55 PM 30.2 °F 18.9 °F 26.6 °F 86% 29.74 in 0.8 mi WSW 16.1 mph 24.2 mph N/A Snow Light Snow
4:15 PM 30.2 °F 20.2 °F 26.6 °F 86% 29.75 in 1.5 mi WSW 12.7 mph 21.9 mph N/A Snow Light Snow
4:35 PM 30.2 °F 18.9 °F 26.6 °F 86% 29.77 in 1.5 mi WSW 16.1 mph 25.3 mph N/A Snow Light Snow
4:55 PM 28.4 °F 17.0 °F 26.6 °F 93% 29.78 in 1.0 mi WSW 15.0 mph 20.7 mph N/A Snow Light Snow
5:15 PM 28.4 °F 17.0 °F 26.6 °F 93% 29.79 in 1.8 mi WSW 15.0 mph 23.0 mph N/A Snow Light Snow
5:35 PM 28.4 °F 18.0 °F 26.6 °F 93% 29.80 in 2.5 mi WSW 12.7 mph 20.7 mph N/A Snow Light Snow
5:55 PM 28.4 °F 17.5 °F 26.6 °F 93% 29.82 in 2.5 mi WSW 13.8 mph 23.0 mph N/A Snow Light Snow
6:15 PM 28.4 °F 17.5 °F 26.6 °F 93% 29.83 in 3.0 mi WSW 13.8 mph 24.2 mph N/A Snow Light Snow
6:35 PM 28.4 °F 19.1 °F 26.6 °F 93% 29.83 in 2.5 mi WSW 10.4 mph 20.7 mph N/A Snow Light Snow
6:55 PM 28.4 °F 18.5 °F 26.6 °F 93% 29.84 in 4.0 mi WSW 11.5 mph 18.4 mph N/A Snow Light Snow
7:15 PM 28.4 °F 18.5 °F 26.6 °F 93% 29.85 in 2.5 mi WSW 11.5 mph 17.3 mph N/A Snow Light Snow
7:35 PM 30.2 °F 21.9 °F 24.8 °F 80% 29.86 in 7.0 mi West 9.2 mph 17.3 mph N/A Snow Light Snow
7:55 PM 30.2 °F 20.2 °F 24.8 °F 80% 29.87 in 10.0 mi West 12.7 mph 20.7 mph N/A Snow Light Snow
8:15 PM 30.2 °F 21.3 °F 24.8 °F 80% 29.88 in 7.0 mi WSW 10.4 mph 20.7 mph N/A Snow Light Snow
8:35 PM 30.2 °F 22.6 °F 24.8 °F 80% 29.89 in 7.0 mi West 8.1 mph 27.6 mph N/A Snow Light Snow
8:55 PM 30.2 °F 22.6 °F 24.8 °F 80% 29.90 in 7.0 mi West 8.1 mph 21.9 mph N/A   Mostly Cloudy
9:15 PM 30.2 °F 22.6 °F 26.6 °F 86% 29.91 in 7.0 mi WSW 8.1 mph 17.3 mph N/A Snow Light Snow
9:35 PM 30.2 °F 22.6 °F 26.6 °F 86% 29.91 in 5.0 mi West 8.1 mph 20.7 mph N/A Snow Light Snow
9:55 PM 30.2 °F 21.9 °F 26.6 °F 86% 29.92 in 7.0 mi West 9.2 mph 19.6 mph N/A   Overcast
10:15 PM 30.2 °F 21.9 °F 26.6 °F 86% 29.93 in 10.0 mi West 9.2 mph 17.3 mph N/A   Overcast
10:35 PM 30.2 °F 22.6 °F 26.6 °F 86% 29.93 in 10.0 mi West 8.1 mph - N/A   Mostly Cloudy
10:55 PM 30.2 °F 20.8 °F 26.6 °F 86% 29.94 in 5.0 mi WSW 11.5 mph 18.4 mph N/A   Overcast
11:15 PM 32.0 °F 24.8 °F 26.6 °F 80% 29.94 in 7.0 mi West 8.1 mph 19.6 mph N/A Snow Light Snow
11:35 PM 32.0 °F 23.6 °F 26.6 °F 80% 29.95 in 7.0 mi West 10.4 mph 18.4 mph N/A   Overcast
11:55 PM 32.0 °F 24.2 °F 26.6 °F 80% 29.96 in 7.0 mi West 9.2 mph 16.1 mph N/A   Overcast